{"data":{"norad_id":57709,"intl_designator":"2023-129M","name":"STARLINK-30287","alt_names":[],"object_type":"PAYLOAD","status":"ACTIVE","operator":null,"country":"US","launch_date":"2023-08-27","launch_site_code":"AFETR","launch_vehicle":null,"mission":null,"orbit_class":"UNKNOWN","rcs_meters":null,"size_class":null,"mass_kg":null,"dimensions":null,"purposes":["comms"],"wikipedia_slug":null,"has_3d_model":false,"image_url":null,"decayed_at":null,"tle_current":{"epoch":"2026-05-24T23:42:42.812064Z","epoch_age_seconds":69951,"freshness":"FRESH","line1":"1 57709U 23129M   26144.98799551  .00001192  00000+0  52856-4 0  9997","line2":"2 57709  43.0077  46.8247 0001035 288.4630  71.6110 15.27573373152357","mean_motion":15.27573373,"eccentricity":0.0001035,"inclination_deg":43.0077,"raan_deg":46.8247,"arg_perigee_deg":288.463,"mean_anomaly_deg":71.611,"bstar":5.2856e-5,"rev_number":15235,"period_min":94.267157666671,"perigee_km":482.35880491868,"apogee_km":483.7790745482,"semimajor_km":6861.2059397334,"source":"CELESTRAK","updated_at":"2026-05-25T13:38:18.372836Z"}}}